[[{"header":{"parameterUnit":"m.s-1","parameterCategory":2,"la1":30.2991,"la2":30.254,"lo1":-89.0895,"lo2":-89.0444,"dy":0.0017,"dx":0.0017,"nx":28,"ny":28,"refTime":"2025-08-31T09:00:00:Z","depth":"0","parameterNumber":2,"parameterNumberName":"U-component_of_CURRENTS"},"data":[0,0,0,0,0,0,0,0,0,0,0,0,0,0,0,0,0,0,0,0,0,0,0,0,0,0,0,0,0,0,0,0,0,0,0,0,0,0,0,0,0,0,0,0,0,0,0,0,0,0,0,0,0,0,0,0,0,0,-0.2355,-0.2356,0,-0.2399,-0.24,-0.24,-0.2355,-0.2353,-0.2352,-0.235,-0.2322,-0.2323,-0.2323,0,0,0,0,0,0,0,0,0,0,0,0,0,-0.2285,-0.2286,-0.2355,-0.2356,-0.2357,-0.2399,-0.24,-0.24,-0.2355,-0.2353,-0.2351,-0.2349,-0.2322,-0.2323,-0.2323,0,0,0,0,0,0,0,0,0,0,0,0,0,-0.2319,-0.2286,-0.2355,-0.234,-0.234,-0.2399,-0.24,-0.24,-0.2356,-0.2353,-0.2351,-0.2348,-0.2321,-0.2322,-0.2324,-0.238,0,0,-0.2327,-0.2328,0,0,0,0,0,0,0,0,-0.2317,-0.2322,-0.2342,-0.2342,-0.2341,-0.237,-0.2364,-0.239,-0.2356,-0.2348,-0.235,-0.2347,-0.2334,-0.2334,-0.2347,-0.2379,-0.2377,-0.2327,-0.2328,-0.2328,-0.2329,0,0,0,0,0,0,0,-0.2315,-0.232,-0.2371,-0.2343,-0.2342,-0.2349,-0.2351,-0.237,-0.2352,-0.2349,-0.2346,-0.2354,-0.2333,-0.2346,-0.2346,-0.2377,-0.2327,-0.2328,-0.2329,-0.2329,-0.2482,-0.2485,0,0,0,0,0,0,-0.2313,-0.2318,-0.237,-0.2373,-0.2324,-0.2353,-0.2354,-0.2362,-0.2353,-0.2351,-0.2356,-0.2351,-0.2345,-0.2344,-0.2344,-0.2376,-0.2328,-0.2329,-0.233,-0.2478,-0.2482,-0.2486,0,0,0,0,0,0,-0.2311,-0.2317,-0.2368,-0.2347,-0.2354,-0.2356,-0.2366,-0.2364,-0.2366,-0.236,-0.2354,-0.2356,-0.2343,-0.2343,-0.2382,-0.2376,-0.233,-0.2331,-0.2474,-0.2479,-0.2484,-0.2462,0,0,0,0,0,0,-0.2309,-0.2316,-0.2317,-0.2347,-0.2355,-0.2401,-0.2368,-0.2367,-0.2376,-0.237,-0.236,-0.2355,-0.2341,-0.2381,-0.2383,-0.2376,-0.2332,-0.247,-0.2477,-0.2482,-0.2459,-0.2466,-0.2472,0,0,0,0,0,-0.2306,-0.2316,-0.2317,-0.2323,-0.2357,-0.2402,-0.2408,-0.2399,-0.2378,-0.2389,-0.2399,-0.2354,-0.2421,-0.2385,-0.2387,-0.238,-0.2467,-0.2475,-0.2482,-0.2456,-0.2464,-0.2472,0,0,0,0,0,0,-0.2278,-0.2314,-0.2314,-0.2331,-0.2364,-0.2395,-0.24,-0.2405,-0.2423,-0.2411,-0.2398,-0.2397,-0.2436,-0.2436,-0.2395,-0.2455,-0.2437,-0.2446,-0.2417,-0.2425,-0.2431,-0.2353,-0.2333,0,0,0,0,0,-0.2278,-0.2293,-0.2333,-0.2345,-0.2361,-0.2384,-0.2398,-0.2402,-0.2425,-0.2428,-0.2432,-0.2447,-0.2477,-0.2469,-0.2506,-0.2528,-0.2489,-0.2534,-0.254,-0.2545,-0.2492,-0.2454,-0.2449,-0.2511,-0.2511,-0.251,0,0,-0.2268,-0.229,-0.2297,-0.2341,-0.2359,-0.2381,-0.2385,-0.2412,-0.2417,-0.2426,-0.2438,-0.248,-0.2501,-0.2534,-0.2548,-0.2518,-0.2523,-0.2555,-0.2557,-0.25,-0.2461,-0.2454,-0.2447,-0.2516,-0.2515,-0.2514,0,0,-0.226,-0.228,-0.229,-0.2321,-0.236,-0.2379,-0.2388,-0.2432,-0.2433,-0.248,-0.2489,-0.2513,-0.2571,-0.2557,-0.2562,-0.263,-0.2579,-0.2674,-0.2604,-0.257,-0.2562,-0.2553,-0.2533,-0.2523,-0.2649,-0.2649,-0.2649,0,-0.2244,-0.226,-0.2301,-0.2321,-0.2333,-0.2375,-0.2385,-0.2409,-0.2459,-0.246,-0.2481,-0.2546,-0.256,-0.2555,-0.2581,-0.2627,-0.2618,-0.2558,-0.2567,-0.2559,-0.255,-0.253,-0.2519,-0.2649,-0.2649,-0.2649,-0.2649,0,-0.2244,-0.2258,-0.2269,-0.2299,-0.2324,-0.2347,-0.2385,-0.2413,-0.2433,-0.2449,-0.2481,-0.2519,-0.2535,-0.2568,-0.2585,-0.2553,-0.2573,-0.2593,-0.2519,-0.254,-0.2522,-0.2511,-0.2649,-0.2649,-0.2649,-0.2649,0,0,-0.22,-0.2255,-0.2255,-0.2263,-0.2312,-0.2334,-0.2351,-0.2373,-0.2371,-0.2419,-0.2407,-0.2453,-0.2466,-0.2474,-0.2506,-0.2463,-0.2419,-0.2495,-0.2493,-0.2423,-0.2358,-0.2326,-0.2311,-0.2445,-0.2442,-0.244,-0.2378,0,-0.2179,-0.2201,-0.2234,-0.2245,-0.2256,-0.23,-0.2312,-0.2337,-0.2367,-0.2381,-0.2386,-0.241,-0.2433,-0.2451,-0.241,-0.2441,-0.2384,-0.2433,-0.2389,-0.2387,-0.2313,-0.2294,-0.2206,-0.2139,-0.2367,-0.2365,-0.2363,0,-0.2154,-0.2174,-0.218,-0.2212,-0.222,-0.2232,-0.225,-0.2272,-0.2295,-0.232,-0.2317,-0.2349,-0.2314,-0.234,-0.2291,-0.2334,-0.2319,-0.232,-0.2319,-0.2266,-0.2331,-0.2154,-0.2109,-0.2089,-0.2345,-0.2347,-0.2348,0,-0.2089,-0.2128,-0.2125,-0.2139,-0.2189,-0.2189,-0.221,-0.2241,-0.2256,-0.2271,-0.2288,-0.2265,-0.227,-0.2234,-0.2247,-0.227,-0.2195,-0.2233,-0.2173,-0.2173,-0.2068,-0.2062,-0.1937,-0.2141,-0.2141,-0.2142,-0.2142,0,-0.2045,-0.2043,-0.2095,-0.2097,-0.2093,-0.2141,-0.214,-0.2168,-0.22,-0.2205,-0.2242,-0.2242,-0.2242,-0.2226,-0.2216,-0.2157,-0.2164,-0.212,-0.2132,-0.207,-0.2065,-0.2021,-0.2044,-0.2139,-0.214,-0.214,-0.2141,0,-0.1968,-0.2006,-0.2008,-0.2052,-0.2062,-0.2057,-0.2104,-0.2108,-0.2154,-0.2163,-0.2167,-0.2211,-0.219,-0.2186,-0.2145,-0.2118,-0.2026,-0.2044,-0.1978,-0.1982,-0.1896,-0.1924,-0.1778,-0.1729,-0.1944,-0.1943,-0.1942,0,-0.1927,-0.192,-0.1961,-0.1961,-0.1976,-0.199,-0.1998,-0.2063,-0.2077,-0.2141,-0.2134,-0.2142,-0.2127,-0.207,-0.2023,-0.196,-0.1957,-0.1841,-0.1837,-0.183,-0.1872,-0.1891,-0.1862,-0.1717,-0.1714,-0.1711,-0.1709,0,-0.184,-0.1857,-0.1863,-0.1871,-0.1877,-0.1891,-0.1913,-0.1925,-0.1999,-0.202,-0.204,-0.2038,-0.2009,-0.1916,-0.1855,-0.181,-0.1784,-0.1788,-0.1779,-0.1652,-0.166,-0.1641,-0.1848,-0.1687,-0.169,-0.1691,-0.1692,-0.1693,-0.1762,-0.175,-0.1763,-0.1757,-0.1769,-0.1768,-0.1745,-0.1792,-0.1805,-0.1814,-0.1892,-0.1864,-0.182,-0.1723,-0.1679,-0.1571,-0.1626,-0.1515,-0.1543,-0.1558,-0.1504,-0.1665,-0.1528,-0.1529,-0.153,-0.1531,-0.1532,0,-0.1655,-0.1653,-0.1648,-0.1641,-0.161,-0.1655,-0.1663,-0.1627,-0.1605,-0.1658,-0.1657,-0.1638,-0.1535,-0.151,-0.1417,-0.1346,-0.1315,-0.1315,-0.1309,-0.1287,-0.1408,-0.1392,-0.122,-0.122,-0.122,-0.122,-0.122,-0.122,-0.1598,-0.1555,-0.1556,-0.1473,-0.1466,-0.1391,-0.137,-0.1344,-0.1354,-0.1335,-0.1357,-0.1411,-0.1398,-0.1415,-0.1299,-0.1231,-0.1199,-0.1155,-0.119,-0.1284,-0.1306,-0.1326,-0.1313,-0.1127,-0.1127,-0.1007,-0.1006,-0.1005]},{"header":{"parameterUnit":"m.s-1","parameterCategory":2,"la1":30.2991,"la2":30.254,"lo1":-89.0895,"lo2":-89.0444,"dy":0.0017,"dx":0.0017,"nx":28,"ny":28,"refTime":"2025-08-31T09:00:00:Z","depth":"0","parameterNumber":3,"parameterNumberName":"V-component_of_CURRENTS"},"data":[0,0,0,0,0,0,0,0,0,0,0,0,0,0,0,0,0,0,0,0,0,0,0,0,0,0,0,0,0,0,0,0,0,0,0,0,0,0,0,0,0,0,0,0,0,0,0,0,0,0,0,0,0,0,0,0,0,0,-0.0329,-0.0328,0,-0.0262,-0.0261,-0.026,-0.0223,-0.0223,-0.0222,-0.0222,-0.0128,-0.0125,-0.0123,0,0,0,0,0,0,0,0,0,0,0,0,0,-0.0388,-0.0387,-0.0329,-0.0328,-0.0327,-0.0262,-0.0261,-0.026,-0.0223,-0.0222,-0.0222,-0.0222,-0.0129,-0.0126,-0.0123,0,0,0,0,0,0,0,0,0,0,0,0,0,-0.0346,-0.0387,-0.0329,-0.03,-0.0297,-0.0262,-0.0261,-0.026,-0.0223,-0.0222,-0.0222,-0.0222,-0.013,-0.0126,-0.0123,-0.0105,0,0,-0.0112,-0.011,0,0,0,0,0,0,0,0,-0.0348,-0.0344,-0.0305,-0.0302,-0.0298,-0.025,-0.0247,-0.0206,-0.0223,-0.0251,-0.0222,-0.0222,-0.0166,-0.0159,-0.0148,-0.0101,-0.0097,-0.0111,-0.0109,-0.0108,-0.0107,0,0,0,0,0,0,0,-0.0351,-0.0346,-0.0302,-0.0304,-0.03,-0.0278,-0.0272,-0.0239,-0.0211,-0.0249,-0.0246,-0.0238,-0.0164,-0.0152,-0.0146,-0.0095,-0.0111,-0.0108,-0.0106,-0.0105,0.0008,0.0009,0,0,0,0,0,0,-0.0361,-0.0349,-0.0305,-0.03,-0.0323,-0.0277,-0.0271,-0.0266,-0.0211,-0.0203,-0.0238,-0.0236,-0.0158,-0.015,-0.0142,-0.0117,-0.0108,-0.0104,-0.0102,0.0007,0.0008,0.0009,0,0,0,0,0,0,-0.0363,-0.0358,-0.0307,-0.0323,-0.0315,-0.0277,-0.0271,-0.0265,-0.0254,-0.0203,-0.0195,-0.0234,-0.0158,-0.0147,-0.0107,-0.0113,-0.0103,-0.01,0.0006,0.0007,0.0009,-0.0068,0,0,0,0,0,0,-0.0365,-0.0359,-0.0363,-0.0324,-0.0314,-0.0295,-0.0271,-0.0264,-0.0249,-0.0246,-0.0197,-0.0188,-0.0157,-0.0113,-0.0104,-0.0108,-0.0097,0.0005,0.0007,0.0008,-0.0066,-0.0069,-0.0072,0,0,0,0,0,-0.0367,-0.0379,-0.0364,-0.0358,-0.032,-0.0295,-0.0289,-0.0261,-0.0249,-0.0249,-0.0207,-0.019,-0.0096,-0.0109,-0.0099,-0.0103,0.0004,0.0006,0.0008,-0.0065,-0.0069,-0.0072,0,0,0,0,0,0,-0.0409,-0.0375,-0.0357,-0.0358,-0.033,-0.0289,-0.0288,-0.0265,-0.0233,-0.023,-0.0182,-0.017,-0.0132,-0.0102,-0.0118,-0.0061,-0.0041,-0.0037,-0.0101,-0.0103,-0.0106,-0.0125,-0.0094,0,0,0,0,0,-0.0419,-0.0418,-0.0377,-0.0379,-0.0367,-0.0328,-0.0315,-0.0295,-0.0259,-0.0245,-0.0208,-0.0162,-0.0115,-0.0099,-0.0053,-0.0031,-0.0005,-0.0022,-0.0025,-0.0027,-0.0032,-0.0001,-0.0002,0.0015,0.0015,0.0015,0,0,-0.0435,-0.0417,-0.0415,-0.0387,-0.0364,-0.0356,-0.032,-0.0307,-0.0297,-0.0239,-0.0218,-0.0168,-0.0107,-0.0075,-0.0057,-0.0055,-0.0017,-0.0025,-0.0028,-0.0031,0.0001,-0.0001,-0.0003,0.0017,0.0016,0.0016,0,0,-0.047,-0.045,-0.0461,-0.0441,-0.0411,-0.0384,-0.0382,-0.0341,-0.0321,-0.029,-0.0239,-0.0195,-0.0135,-0.0095,-0.0065,-0.0054,-0.0026,-0.0036,-0.0078,-0.0048,-0.005,-0.0051,-0.0024,-0.0023,-0.0047,-0.0047,-0.0047,0,-0.0492,-0.0495,-0.046,-0.0464,-0.0452,-0.04,-0.0405,-0.0376,-0.0327,-0.0308,-0.0292,-0.0193,-0.0145,-0.01,-0.0092,-0.0064,-0.0042,-0.0078,-0.0055,-0.0056,-0.0056,-0.0028,-0.0025,-0.0051,-0.005,-0.005,-0.005,0,-0.053,-0.0531,-0.0536,-0.052,-0.0504,-0.05,-0.0454,-0.0434,-0.0401,-0.0365,-0.0313,-0.0247,-0.0189,-0.0165,-0.0126,-0.0099,-0.0081,-0.006,-0.0059,-0.0063,-0.0032,-0.0028,-0.0056,-0.0054,-0.0053,-0.0052,0,0,-0.0578,-0.0567,-0.0568,-0.0569,-0.0533,-0.0524,-0.0506,-0.0469,-0.0456,-0.0404,-0.0383,-0.0301,-0.0263,-0.0225,-0.0172,-0.0147,-0.0128,-0.0113,-0.011,-0.0107,-0.0066,-0.0019,-0.001,-0.011,-0.0109,-0.0109,-0.0046,0,-0.0615,-0.0643,-0.0619,-0.0632,-0.0638,-0.0587,-0.0574,-0.0534,-0.0489,-0.0454,-0.0382,-0.0335,-0.0286,-0.0261,-0.0228,-0.0142,-0.012,-0.0147,-0.0042,-0.0039,-0.0015,-0.0004,0.0021,0.0082,-0.0042,-0.0041,-0.004,0,-0.0655,-0.0667,-0.0695,-0.0686,-0.0683,-0.068,-0.0646,-0.0627,-0.056,-0.0525,-0.0471,-0.0407,-0.0343,-0.0307,-0.0196,-0.0217,-0.015,-0.0094,-0.009,-0.0018,0.0015,0.0072,0.0095,0.0196,-0.0034,-0.0034,-0.0035,0,-0.0704,-0.0714,-0.074,-0.0737,-0.0721,-0.072,-0.0704,-0.0651,-0.0633,-0.0568,-0.0546,-0.0461,-0.0413,-0.0327,-0.0194,-0.02,-0.0074,-0.0066,0.0035,0.0039,0.0097,0.0105,0.0213,-0.0001,-0.0001,-0.0001,-0.0002,0,-0.0748,-0.0765,-0.0768,-0.0782,-0.0806,-0.0773,-0.0778,-0.0746,-0.07,-0.0679,-0.0588,-0.0548,-0.0417,-0.0319,-0.0214,-0.0067,-0.0087,0.0032,0.0061,0.0073,0.0079,0.02,0.0237,0.0001,0.0,0.0,-0.0,0,-0.0793,-0.0795,-0.0824,-0.0828,-0.0831,-0.0847,-0.0835,-0.0833,-0.0781,-0.0752,-0.0734,-0.0613,-0.0478,-0.0335,-0.0179,-0.0086,0.0114,0.0099,0.0107,0.0136,0.0314,0.0345,0.0485,0.054,0.0207,0.0209,0.021,0,-0.0816,-0.0839,-0.0868,-0.0891,-0.0895,-0.0912,-0.092,-0.088,-0.087,-0.0784,-0.077,-0.0636,-0.052,-0.0265,-0.0076,0.0116,0.0192,0.0241,0.0238,0.0334,0.0389,0.041,0.0447,0.0283,0.0285,0.0286,0.0288,0,-0.0857,-0.0868,-0.0895,-0.0951,-0.0974,-0.0996,-0.1,-0.1006,-0.0948,-0.09,-0.0805,-0.0705,-0.0445,-0.0202,0.0053,0.017,0.0318,0.0277,0.0377,0.0462,0.0491,0.0554,0.0227,0.0301,0.03,0.0299,0.0298,0.0297,-0.088,-0.0915,-0.0954,-0.1001,-0.1035,-0.1064,-0.1073,-0.1055,-0.1026,-0.0931,-0.0835,-0.0648,-0.0313,0.0062,0.0194,0.0475,0.0442,0.0551,0.0581,0.0593,0.0651,0.0355,0.0462,0.0462,0.0462,0.0461,0.0461,0,-0.0904,-0.0945,-0.1,-0.1054,-0.1094,-0.1097,-0.1109,-0.1087,-0.104,-0.0924,-0.0797,-0.0413,-0.0078,0.0228,0.0619,0.0766,0.0788,0.0838,0.0869,0.0891,0.0636,0.0645,0.0797,0.0796,0.0796,0.0796,0.0796,0.0796,-0.0918,-0.0976,-0.1009,-0.1083,-0.1119,-0.1139,-0.1139,-0.1087,-0.0996,-0.0777,-0.0554,-0.038,0.0062,0.0664,0.1013,0.1045,0.1148,0.1148,0.1202,0.1022,0.0997,0.0973,0.0992,0.1214,0.1214,0.1446,0.1449,0.145]}],[{"header":{"parameterUnit":"m.s-1","parameterCategory":2,"la1":30.2991,"la2":30.254,"lo1":-89.0895,"lo2":-89.0444,"dy":0.0017,"dx":0.0017,"nx":28,"ny":28,"refTime":"2025-08-31T09:00:00:Z","depth":"2","parameterNumber":2,"parameterNumberName":"U-component_of_CURRENTS"},"data":[0,0,0,0,0,0,0,0,0,0,0,0,0,0,0,0,0,0,0,0,0,0,0,0,0,0,0,0,0,0,0,0,0,0,0,0,0,0,0,0,0,0,0,0,0,0,0,0,0,0,0,0,0,0,0,0,0,0,-0.2127,-0.2127,0,-0.2149,-0.2149,-0.2149,-0.211,-0.2109,-0.2107,-0.2106,-0.2083,-0.2083,-0.2084,0,0,0,0,0,0,0,0,0,0,0,0,0,-0.2064,-0.2065,-0.2127,-0.2127,-0.2128,-0.2149,-0.2149,-0.2149,-0.211,-0.2108,-0.2107,-0.2106,-0.2083,-0.2083,-0.2084,0,0,0,0,0,0,0,0,0,0,0,0,0,-0.2086,-0.2065,-0.2127,-0.2113,-0.2112,-0.2149,-0.2149,-0.2149,-0.211,-0.2108,-0.2107,-0.2105,-0.2083,-0.2083,-0.2084,-0.212,0,0,-0.2086,-0.2086,0,0,0,0,0,0,0,0,-0.2085,-0.2088,-0.2114,-0.2114,-0.2113,-0.2127,-0.2118,-0.2138,-0.211,-0.2108,-0.2106,-0.2105,-0.2096,-0.2096,-0.21,-0.2119,-0.2118,-0.2086,-0.2086,-0.2086,-0.2086,0,0,0,0,0,0,0,-0.2084,-0.2087,-0.2133,-0.2115,-0.2114,-0.211,-0.2111,-0.2122,-0.2108,-0.2108,-0.2106,-0.2113,-0.2095,-0.21,-0.21,-0.2118,-0.2086,-0.2086,-0.2086,-0.2087,-0.2195,-0.2197,0,0,0,0,0,0,-0.2088,-0.2086,-0.2132,-0.2134,-0.2098,-0.2112,-0.2113,-0.2122,-0.2109,-0.2107,-0.2114,-0.2111,-0.21,-0.2099,-0.2099,-0.2124,-0.2086,-0.2087,-0.2087,-0.2192,-0.2195,-0.2198,0,0,0,0,0,0,-0.2086,-0.2092,-0.2131,-0.2112,-0.2117,-0.2115,-0.2125,-0.2123,-0.2124,-0.2115,-0.211,-0.2116,-0.2099,-0.2098,-0.212,-0.2123,-0.2087,-0.2088,-0.2189,-0.2193,-0.2197,-0.2185,0,0,0,0,0,0,-0.2084,-0.2091,-0.2093,-0.2113,-0.2118,-0.2154,-0.2127,-0.2125,-0.2132,-0.2128,-0.2116,-0.2112,-0.2097,-0.212,-0.2121,-0.2123,-0.2088,-0.2186,-0.2191,-0.2195,-0.2182,-0.2188,-0.2193,0,0,0,0,0,-0.2082,-0.2091,-0.2093,-0.2098,-0.2123,-0.2156,-0.2158,-0.2149,-0.2134,-0.2142,-0.2141,-0.2112,-0.215,-0.2122,-0.2123,-0.2125,-0.2184,-0.2189,-0.2195,-0.218,-0.2187,-0.2193,0,0,0,0,0,0,-0.2055,-0.2089,-0.2091,-0.2107,-0.2132,-0.215,-0.2153,-0.2156,-0.2163,-0.2155,-0.214,-0.2138,-0.2164,-0.2163,-0.2132,-0.2179,-0.2165,-0.2171,-0.2153,-0.216,-0.2165,-0.2116,-0.2089,0,0,0,0,0,-0.2056,-0.2072,-0.2106,-0.2116,-0.2131,-0.2145,-0.2154,-0.2157,-0.217,-0.217,-0.2168,-0.2175,-0.2193,-0.2188,-0.221,-0.2227,-0.2197,-0.2237,-0.2242,-0.2246,-0.2213,-0.2183,-0.218,-0.2216,-0.2216,-0.2216,0,0,-0.2048,-0.2068,-0.2075,-0.2112,-0.2126,-0.2145,-0.2145,-0.2167,-0.2171,-0.2169,-0.2174,-0.2199,-0.221,-0.2232,-0.2242,-0.2222,-0.2231,-0.2253,-0.2256,-0.222,-0.2188,-0.2184,-0.218,-0.222,-0.222,-0.2219,0,0,-0.2039,-0.2061,-0.2071,-0.2097,-0.213,-0.2146,-0.2155,-0.2186,-0.2185,-0.2215,-0.2216,-0.2232,-0.2266,-0.2257,-0.226,-0.2311,-0.2271,-0.2342,-0.2303,-0.2276,-0.227,-0.2265,-0.2245,-0.2238,-0.2328,-0.2328,-0.2328,0,-0.2024,-0.2041,-0.2078,-0.2097,-0.2108,-0.2146,-0.2155,-0.2173,-0.2205,-0.2204,-0.2216,-0.2255,-0.2265,-0.2262,-0.2283,-0.2312,-0.2299,-0.2267,-0.2274,-0.2269,-0.2263,-0.2244,-0.2236,-0.2328,-0.2328,-0.2328,-0.2328,0,-0.2023,-0.2038,-0.2048,-0.208,-0.2102,-0.2122,-0.2157,-0.2179,-0.2194,-0.2204,-0.2226,-0.2249,-0.2257,-0.2283,-0.2291,-0.2274,-0.228,-0.2291,-0.2238,-0.2257,-0.2238,-0.223,-0.2328,-0.2328,-0.2328,-0.2328,0,0,-0.1978,-0.2035,-0.2035,-0.2045,-0.2094,-0.2112,-0.2132,-0.2153,-0.2155,-0.2188,-0.2179,-0.2213,-0.2222,-0.2228,-0.2248,-0.222,-0.2188,-0.2235,-0.2233,-0.2178,-0.2131,-0.2091,-0.2079,-0.2197,-0.2195,-0.2194,-0.2139,0,-0.1958,-0.198,-0.2015,-0.2029,-0.2041,-0.2085,-0.2099,-0.2125,-0.215,-0.2162,-0.217,-0.2185,-0.2203,-0.2215,-0.2188,-0.2204,-0.2163,-0.2201,-0.2151,-0.2149,-0.208,-0.2066,-0.1927,-0.1862,-0.213,-0.2129,-0.2128,0,-0.1934,-0.1955,-0.1964,-0.2,-0.2009,-0.2024,-0.2048,-0.2069,-0.2097,-0.2116,-0.2119,-0.2143,-0.2125,-0.2142,-0.2105,-0.2133,-0.2116,-0.2113,-0.2111,-0.2057,-0.2092,-0.1887,-0.1836,-0.2114,-0.2115,-0.2116,-0.2117,0,-0.1871,-0.1912,-0.1913,-0.1928,-0.1982,-0.1986,-0.201,-0.2044,-0.206,-0.2081,-0.2097,-0.2085,-0.2091,-0.2061,-0.2067,-0.2083,-0.2022,-0.2046,-0.1982,-0.198,-0.1838,-0.1827,-0.1978,-0.1978,-0.1978,-0.1978,-0.1978,0,-0.183,-0.183,-0.1886,-0.1889,-0.1892,-0.1942,-0.1947,-0.1977,-0.2014,-0.2022,-0.2061,-0.2063,-0.2069,-0.2054,-0.2042,-0.1984,-0.1996,-0.1947,-0.1948,-0.1839,-0.1829,-0.2029,-0.2036,-0.1976,-0.1976,-0.1977,-0.1977,0,-0.1757,-0.1796,-0.1803,-0.1851,-0.1863,-0.1863,-0.1915,-0.1922,-0.1972,-0.1984,-0.199,-0.2036,-0.2017,-0.2015,-0.1978,-0.1951,-0.1906,-0.1878,-0.1756,-0.1743,-0.1888,-0.1896,-0.1786,-0.1783,-0.1781,-0.178,-0.1779,0,-0.1719,-0.1716,-0.1761,-0.1764,-0.1783,-0.1802,-0.1815,-0.1881,-0.1896,-0.1961,-0.1955,-0.1967,-0.1949,-0.1894,-0.1846,-0.1785,-0.1846,-0.1622,-0.1612,-0.1849,-0.1861,-0.1872,-0.1882,-0.1436,-0.1432,-0.1428,-0.1426,0,-0.1641,-0.166,-0.1669,-0.1681,-0.1693,-0.171,-0.1735,-0.1747,-0.1821,-0.1839,-0.1855,-0.1849,-0.182,-0.1701,-0.1643,-0.1593,-0.1624,-0.1553,-0.18,-0.1518,-0.1517,-0.1531,-0.1552,-0.1396,-0.1399,-0.1402,-0.1403,-0.1404,-0.1572,-0.1563,-0.1579,-0.1578,-0.1595,-0.1595,-0.1573,-0.1615,-0.1624,-0.1625,-0.1697,-0.1644,-0.1629,-0.1471,-0.1391,-0.1334,-0.1449,-0.1375,-0.1385,-0.1399,-0.138,-0.1376,-0.1226,-0.1228,-0.123,-0.1231,-0.1233,0,-0.1476,-0.1476,-0.1474,-0.1471,-0.1446,-0.1491,-0.1496,-0.1457,-0.1426,-0.1456,-0.1444,-0.13,-0.1219,-0.1214,-0.1085,-0.1056,-0.1046,-0.1003,-0.0989,-0.1019,-0.1045,-0.1009,-0.0757,-0.0755,-0.0754,-0.0753,0,0,-0.1426,-0.1388,-0.1388,-0.1314,-0.131,-0.1241,-0.1218,-0.1181,-0.1173,-0.1115,-0.1089,-0.1164,-0.1189,-0.0979,-0.0922,-0.0821,-0.0911,-0.0776,-0.1159,-0.1172,-0.1197,-0.1259,-0.1236,0,0,0,0,0]},{"header":{"parameterUnit":"m.s-1","parameterCategory":2,"la1":30.2991,"la2":30.254,"lo1":-89.0895,"lo2":-89.0444,"dy":0.0017,"dx":0.0017,"nx":28,"ny":28,"refTime":"2025-08-31T09:00:00:Z","depth":"2","parameterNumber":3,"parameterNumberName":"V-component_of_CURRENTS"},"data":[0,0,0,0,0,0,0,0,0,0,0,0,0,0,0,0,0,0,0,0,0,0,0,0,0,0,0,0,0,0,0,0,0,0,0,0,0,0,0,0,0,0,0,0,0,0,0,0,0,0,0,0,0,0,0,0,0,0,-0.0236,-0.0235,0,-0.0181,-0.018,-0.018,-0.0146,-0.0145,-0.0145,-0.0145,-0.0062,-0.006,-0.0058,0,0,0,0,0,0,0,0,0,0,0,0,0,-0.0279,-0.0279,-0.0236,-0.0235,-0.0235,-0.0181,-0.018,-0.018,-0.0146,-0.0145,-0.0145,-0.0145,-0.0063,-0.0061,-0.0058,0,0,0,0,0,0,0,0,0,0,0,0,0,-0.0247,-0.0279,-0.0236,-0.0211,-0.0208,-0.0181,-0.018,-0.018,-0.0146,-0.0145,-0.0145,-0.0145,-0.0064,-0.0061,-0.0058,-0.0047,0,0,-0.0049,-0.0048,0,0,0,0,0,0,0,0,-0.0249,-0.0245,-0.0215,-0.0212,-0.0209,-0.0169,-0.0165,-0.0134,-0.0146,-0.017,-0.0145,-0.0144,-0.0095,-0.009,-0.0081,-0.0043,-0.0039,-0.0049,-0.0047,-0.0046,-0.0045,0,0,0,0,0,0,0,-0.0251,-0.0247,-0.0215,-0.0214,-0.0211,-0.0191,-0.0186,-0.0159,-0.0135,-0.0168,-0.0165,-0.0158,-0.0094,-0.0084,-0.0079,-0.0038,-0.0049,-0.0046,-0.0044,-0.0043,0.0035,0.0035,0,0,0,0,0,0,-0.0259,-0.025,-0.0217,-0.0213,-0.0228,-0.0191,-0.0185,-0.0183,-0.0136,-0.0129,-0.0158,-0.0157,-0.009,-0.0083,-0.0076,-0.0059,-0.0046,-0.0043,-0.0041,0.0035,0.0035,0.0036,0,0,0,0,0,0,-0.026,-0.0257,-0.0219,-0.0229,-0.0223,-0.019,-0.0188,-0.0182,-0.0174,-0.0129,-0.0121,-0.0156,-0.0089,-0.008,-0.0053,-0.0055,-0.0041,-0.0039,0.0034,0.0035,0.0035,-0.0025,0,0,0,0,0,0,-0.0262,-0.0257,-0.0262,-0.023,-0.0223,-0.0211,-0.0188,-0.0181,-0.017,-0.0167,-0.0124,-0.0116,-0.0088,-0.0057,-0.005,-0.0051,-0.0036,0.0034,0.0035,0.0035,-0.0024,-0.0027,-0.003,0,0,0,0,0,-0.0263,-0.0276,-0.0263,-0.0259,-0.0229,-0.0211,-0.0206,-0.0181,-0.017,-0.0172,-0.0139,-0.0118,-0.0048,-0.0055,-0.0046,-0.0047,0.0034,0.0034,0.0035,-0.0022,-0.0026,-0.003,0,0,0,0,0,0,-0.0299,-0.0273,-0.0258,-0.0262,-0.024,-0.0205,-0.0206,-0.0186,-0.0162,-0.016,-0.0117,-0.0107,-0.0082,-0.0054,-0.0063,-0.002,-0.0002,0.0,-0.0049,-0.0052,-0.0055,-0.0064,-0.0034,0,0,0,0,0,-0.0309,-0.0311,-0.0278,-0.0281,-0.0273,-0.0239,-0.023,-0.0212,-0.0185,-0.0174,-0.0143,-0.0106,-0.0072,-0.0056,-0.0023,-0.0004,0.0026,0.0004,0.0001,-0.0002,-0.0002,0.0037,0.0037,0.0038,0.0038,0.0038,0,0,-0.0322,-0.0309,-0.0309,-0.0289,-0.027,-0.0265,-0.0234,-0.0224,-0.0217,-0.0169,-0.0153,-0.0117,-0.0068,-0.0045,-0.0031,-0.0024,0.0014,-0.0001,-0.0004,-0.0002,0.0038,0.0038,0.0038,0.0038,0.0038,0.0038,0,0,-0.0355,-0.034,-0.0352,-0.0337,-0.0314,-0.0291,-0.029,-0.0258,-0.0241,-0.022,-0.0179,-0.0145,-0.0101,-0.0064,-0.004,-0.0039,-0.0003,-0.0028,-0.0053,-0.0016,-0.0016,-0.0015,0.0016,0.002,-0.0031,-0.0031,-0.0031,0,-0.0373,-0.038,-0.0353,-0.0359,-0.0349,-0.0306,-0.0312,-0.0289,-0.0251,-0.0234,-0.0224,-0.0146,-0.0109,-0.0068,-0.0066,-0.0047,-0.0022,-0.0048,-0.0021,-0.002,-0.0019,0.0014,0.0018,-0.0034,-0.0034,-0.0033,-0.0033,0,-0.041,-0.0413,-0.042,-0.041,-0.0398,-0.0396,-0.0359,-0.0343,-0.0316,-0.0285,-0.0243,-0.0191,-0.0143,-0.0125,-0.0096,-0.0064,-0.0049,-0.0032,-0.0018,-0.0023,0.0012,0.0018,-0.0038,-0.0037,-0.0036,-0.0035,0,0,-0.0451,-0.0448,-0.0449,-0.045,-0.0423,-0.0417,-0.0403,-0.0371,-0.0357,-0.0316,-0.0292,-0.0231,-0.0197,-0.0166,-0.0123,-0.009,-0.006,-0.0062,-0.0059,-0.0042,0.0018,0.0046,0.0055,-0.0042,-0.0042,-0.0041,0.0035,0,-0.0485,-0.0513,-0.0495,-0.0508,-0.0514,-0.0471,-0.0461,-0.0426,-0.0387,-0.0353,-0.0289,-0.025,-0.0214,-0.0192,-0.0153,-0.0078,-0.0046,-0.0082,0.003,0.0033,0.005,0.0063,0.0049,0.0118,0.0041,0.0042,0.0043,0,-0.0522,-0.0534,-0.0561,-0.0552,-0.055,-0.055,-0.0517,-0.0501,-0.0438,-0.0406,-0.0354,-0.03,-0.0235,-0.021,-0.0096,-0.0123,-0.0059,-0.0006,-0.0002,0.0051,0.0073,0.0114,0.0132,0.0054,0.0053,0.0052,0.0051,0,-0.0562,-0.0574,-0.0597,-0.0596,-0.0583,-0.0582,-0.0568,-0.0519,-0.0502,-0.0438,-0.0415,-0.0331,-0.0287,-0.0199,-0.0084,-0.0091,0.004,0.0046,0.013,0.0133,0.0158,0.0162,0.0121,0.0121,0.0121,0.012,0.012,0,-0.06,-0.0615,-0.0621,-0.0633,-0.0654,-0.0626,-0.0628,-0.0598,-0.0553,-0.0532,-0.0448,-0.0408,-0.0283,-0.0189,-0.0092,0.0044,0.0037,0.0132,0.0158,0.0137,0.0138,0.0113,0.0111,0.0123,0.0123,0.0122,0.0122,0,-0.0637,-0.0641,-0.0668,-0.0672,-0.0676,-0.069,-0.0678,-0.0673,-0.0624,-0.0594,-0.0576,-0.0463,-0.0335,-0.0202,-0.0048,0.0034,0.016,0.0207,0.0173,0.0194,0.0225,0.022,0.0303,0.0305,0.0306,0.0308,0.0309,0,-0.0657,-0.0678,-0.0706,-0.0727,-0.0733,-0.0747,-0.0754,-0.0717,-0.0705,-0.0622,-0.0607,-0.0481,-0.0376,-0.0135,0.0033,0.0212,0.0207,0.0295,0.0283,0.0229,0.0246,0.0238,0.023,0.0291,0.0292,0.0293,0.0293,0,-0.0692,-0.0704,-0.0727,-0.078,-0.0802,-0.082,-0.0823,-0.0827,-0.0772,-0.0726,-0.0638,-0.0547,-0.0312,-0.0106,0.0123,0.0226,0.0265,0.0314,0.028,0.0245,0.0224,0.0238,0.023,0.0299,0.0298,0.0298,0.0297,0.0297,-0.0712,-0.0743,-0.0779,-0.0823,-0.0854,-0.088,-0.0887,-0.087,-0.0842,-0.0754,-0.0667,-0.0501,-0.031,0.003,0.0191,0.034,0.0334,0.0371,0.0367,0.0362,0.0345,0.0328,0.0419,0.0419,0.0419,0.0419,0.0419,0,-0.0733,-0.0769,-0.0819,-0.0868,-0.0906,-0.091,-0.0919,-0.0897,-0.0854,-0.0752,-0.0639,-0.0407,-0.0172,0.0029,0.0272,0.041,0.0393,0.0429,0.0378,0.0372,0.0367,0.0348,0.0424,0.0424,0.0424,0.0425,0,0,-0.0746,-0.0797,-0.0825,-0.0893,-0.0928,-0.0949,-0.0948,-0.0898,-0.0817,-0.0701,-0.0571,-0.0401,-0.0157,0.0012,0.0189,0.0314,0.0304,0.0325,0.031,0.0223,0.0216,0.0326,0.0289,0,0,0,0,0]}],[{"header":{"parameterUnit":"m.s-1","parameterCategory":2,"la1":30.2991,"la2":30.254,"lo1":-89.0895,"lo2":-89.0444,"dy":0.0017,"dx":0.0017,"nx":28,"ny":28,"refTime":"2025-08-31T09:00:00:Z","depth":"4","parameterNumber":2,"parameterNumberName":"U-component_of_CURRENTS"},"data":[0,0,0,0,0,0,0,0,0,0,0,0,0,0,0,0,0,0,0,0,0,0,0,0,0,0,0,0,0,0,0,0,0,0,0,0,0,0,0,0,0,0,0,0,0,0,0,0,0,0,0,0,0,0,0,0,0,0,-0.155,-0.155,0,-0.1592,-0.1592,-0.1592,-0.1608,-0.1609,-0.1609,-0.1609,-0.1637,-0.1638,-0.1639,0,0,0,0,0,0,0,0,0,0,0,0,0,-0.1462,-0.1464,-0.155,-0.155,-0.1551,-0.1592,-0.1592,-0.1592,-0.1608,-0.1609,-0.1609,-0.1609,-0.1637,-0.1638,-0.1639,0,0,0,0,0,0,0,0,0,0,0,0,0,-0.1499,-0.1464,-0.1549,-0.1566,-0.1568,-0.1592,-0.1592,-0.1592,-0.1608,-0.1609,-0.1609,-0.1609,-0.1637,-0.1638,-0.1639,-0.164,0,0,-0.1642,-0.1642,0,0,0,0,0,0,0,0,-0.1497,-0.1502,-0.1563,-0.1565,-0.1568,-0.1598,-0.1572,-0.1609,-0.1608,-0.159,-0.1609,-0.1609,-0.1625,-0.1627,-0.163,-0.1641,-0.1642,-0.1642,-0.1642,-0.1643,-0.1643,0,0,0,0,0,0,0,-0.1494,-0.15,-0.1563,-0.1564,-0.1567,-0.1565,-0.157,-0.1579,-0.1603,-0.1592,-0.1594,-0.1603,-0.1625,-0.1629,-0.1631,-0.1643,-0.1642,-0.1642,-0.1643,-0.1643,-0.1682,-0.1682,0,0,0,0,0,0,-0.1496,-0.1498,-0.1562,-0.1565,-0.1536,-0.1567,-0.1572,-0.1585,-0.1603,-0.1607,-0.1603,-0.1604,-0.1627,-0.163,-0.1632,-0.1666,-0.1643,-0.1643,-0.1644,-0.1682,-0.1682,-0.1683,0,0,0,0,0,0,-0.1494,-0.1502,-0.156,-0.1534,-0.1542,-0.1568,-0.1582,-0.1586,-0.1615,-0.1612,-0.1616,-0.1631,-0.1628,-0.163,-0.1651,-0.1666,-0.1644,-0.1645,-0.1681,-0.1682,-0.1682,-0.1713,0,0,0,0,0,0,-0.1492,-0.1501,-0.1518,-0.1535,-0.1544,-0.159,-0.1583,-0.1587,-0.162,-0.1623,-0.1637,-0.1639,-0.1628,-0.1649,-0.1652,-0.1667,-0.1645,-0.168,-0.1681,-0.1682,-0.1712,-0.1715,-0.1718,0,0,0,0,0,-0.1488,-0.1506,-0.1519,-0.1527,-0.1564,-0.1592,-0.1596,-0.1613,-0.1622,-0.1639,-0.1643,-0.164,-0.1656,-0.1651,-0.1653,-0.1669,-0.168,-0.1681,-0.1682,-0.171,-0.1714,-0.1718,0,0,0,0,0,0,-0.147,-0.151,-0.1524,-0.1552,-0.158,-0.1596,-0.1615,-0.163,-0.1648,-0.1655,-0.1649,-0.165,-0.1667,-0.1668,-0.1662,-0.1681,-0.1667,-0.1668,-0.1688,-0.1691,-0.1694,-0.1701,-0.1646,0,0,0,0,0,-0.1477,-0.1505,-0.1538,-0.1562,-0.158,-0.1605,-0.1622,-0.1638,-0.1653,-0.1663,-0.1673,-0.1677,-0.167,-0.1682,-0.1677,-0.17,-0.1686,-0.171,-0.1713,-0.1716,-0.1723,-0.1709,-0.1711,-0.1686,-0.1686,-0.1686,0,0,-0.1477,-0.1503,-0.1519,-0.1561,-0.1584,-0.1607,-0.1616,-0.1652,-0.167,-0.1662,-0.1694,-0.1689,-0.1675,-0.1687,-0.1696,-0.1695,-0.1715,-0.1717,-0.172,-0.1725,-0.171,-0.1713,-0.1715,-0.1687,-0.1687,-0.1687,0,0,-0.1478,-0.1517,-0.1536,-0.1565,-0.161,-0.1627,-0.1646,-0.1683,-0.1701,-0.1731,-0.1715,-0.1727,-0.1739,-0.1726,-0.1718,-0.1742,-0.1724,-0.1742,-0.1775,-0.1761,-0.1763,-0.1765,-0.1745,-0.1744,-0.1753,-0.1753,-0.1753,0,-0.1477,-0.1504,-0.1546,-0.157,-0.1592,-0.1639,-0.1659,-0.1685,-0.1724,-0.1733,-0.1749,-0.1752,-0.1754,-0.1743,-0.1753,-0.175,-0.1735,-0.1761,-0.1765,-0.1767,-0.1768,-0.1747,-0.1746,-0.1755,-0.1754,-0.1754,-0.1754,0,-0.1482,-0.1515,-0.1531,-0.1577,-0.1608,-0.1638,-0.168,-0.1716,-0.1751,-0.1767,-0.1786,-0.1789,-0.1789,-0.1793,-0.1785,-0.1789,-0.1773,-0.1762,-0.1756,-0.1772,-0.1749,-0.1747,-0.1757,-0.1756,-0.1756,-0.1756,0,0,-0.1445,-0.152,-0.1527,-0.155,-0.1616,-0.1638,-0.168,-0.1718,-0.174,-0.1786,-0.18,-0.181,-0.1822,-0.1815,-0.1808,-0.1814,-0.1815,-0.1803,-0.1802,-0.1783,-0.178,-0.1673,-0.1661,-0.1804,-0.1804,-0.1804,-0.1759,0,-0.1435,-0.1474,-0.1516,-0.1557,-0.1581,-0.1639,-0.167,-0.1714,-0.1753,-0.1784,-0.1802,-0.1812,-0.1825,-0.1829,-0.1838,-0.1816,-0.1814,-0.1828,-0.1767,-0.1766,-0.1668,-0.1657,-0.1804,-0.1757,-0.1757,-0.1757,-0.1756,0,-0.1415,-0.1449,-0.1485,-0.1548,-0.1564,-0.1597,-0.1655,-0.1689,-0.174,-0.177,-0.1798,-0.181,-0.1827,-0.1837,-0.1824,-0.1832,-0.1813,-0.1802,-0.1799,-0.1689,-0.1656,-0.1739,-0.1753,-0.1753,-0.1754,-0.1754,-0.1754,0,-0.1355,-0.1422,-0.145,-0.1475,-0.1554,-0.1582,-0.1624,-0.1683,-0.1711,-0.1761,-0.1784,-0.1803,-0.1815,-0.1806,-0.1803,-0.1811,-0.1779,-0.1778,-0.1661,-0.1653,-0.1751,-0.175,-0.176,-0.176,-0.176,-0.176,-0.176,0,-0.1313,-0.134,-0.1431,-0.1448,-0.1484,-0.1551,-0.159,-0.1636,-0.1694,-0.1711,-0.1772,-0.1778,-0.1812,-0.1803,-0.1793,-0.1716,-0.1766,-0.1658,-0.163,-0.1764,-0.1765,-0.1749,-0.1749,-0.1758,-0.1759,-0.1759,-0.1759,0,-0.1241,-0.1302,-0.1343,-0.1431,-0.1459,-0.1486,-0.1572,-0.1593,-0.1663,-0.1688,-0.1704,-0.1759,-0.1743,-0.1755,-0.1733,-0.1684,-0.1632,-0.1592,-0.1731,-0.1714,-0.1519,-0.152,-0.1447,-0.1442,-0.1439,-0.1436,-0.1433,0,-0.1204,-0.122,-0.1319,-0.1343,-0.1388,-0.1444,-0.1476,-0.1564,-0.1583,-0.1658,-0.165,-0.1673,-0.1693,-0.1568,-0.1603,-0.1548,-0.1537,-0.1496,-0.1515,-0.1503,-0.1485,-0.1492,-0.1499,-0.1427,-0.1427,-0.1426,-0.1425,0,-0.1132,-0.1182,-0.1217,-0.127,-0.1315,-0.1354,-0.1406,-0.141,-0.1495,-0.1575,-0.1544,-0.1526,-0.1504,-0.1485,-0.1448,-0.1418,-0.1516,-0.1459,-0.1466,-0.1483,-0.148,-0.1466,-0.1477,-0.1412,-0.1414,-0.1415,-0.1416,0,-0.1079,-0.1089,-0.1145,-0.1175,-0.123,-0.1238,-0.1284,-0.1298,-0.1329,-0.1414,-0.1398,-0.143,-0.1482,-0.1415,-0.1387,-0.1342,-0.1326,-0.1282,-0.1299,-0.1313,-0.1292,-0.1269,-0.1102,0,0,0,0,0,-0.1019,-0.1017,-0.1042,-0.1073,-0.1123,-0.115,-0.1221,-0.127,-0.1354,-0.129,-0.1339,-0.1312,-0.127,-0.1293,-0.1217,-0.1331,-0.1335,-0.1238,-0.1295,-0.1343,-0.1358,-0.1346,0,0,0,0,0,0,-0.0979,-0.1001,-0.1006,-0.0976,-0.0974,-0.1015,-0.1054,-0.1116,-0.1088,-0.1177,-0.1159,-0.1225,-0.1204,-0.1284,-0.1186,-0.1191,-0.1198,-0.1266,-0.1262,-0.1335,-0.1348,-0.136,-0.1353,0,0,0,0,0]},{"header":{"parameterUnit":"m.s-1","parameterCategory":2,"la1":30.2991,"la2":30.254,"lo1":-89.0895,"lo2":-89.0444,"dy":0.0017,"dx":0.0017,"nx":28,"ny":28,"refTime":"2025-08-31T09:00:00:Z","depth":"4","parameterNumber":3,"parameterNumberName":"V-component_of_CURRENTS"},"data":[0,0,0,0,0,0,0,0,0,0,0,0,0,0,0,0,0,0,0,0,0,0,0,0,0,0,0,0,0,0,0,0,0,0,0,0,0,0,0,0,0,0,0,0,0,0,0,0,0,0,0,0,0,0,0,0,0,0,-0.0178,-0.0178,0,-0.0148,-0.0147,-0.0147,-0.0124,-0.0124,-0.0123,-0.0123,-0.0067,-0.0065,-0.0064,0,0,0,0,0,0,0,0,0,0,0,0,0,-0.0194,-0.0194,-0.0178,-0.0178,-0.0177,-0.0148,-0.0147,-0.0147,-0.0124,-0.0124,-0.0123,-0.0123,-0.0067,-0.0065,-0.0064,0,0,0,0,0,0,0,0,0,0,0,0,0,-0.0178,-0.0194,-0.0178,-0.0162,-0.016,-0.0148,-0.0147,-0.0147,-0.0124,-0.0124,-0.0123,-0.0123,-0.0067,-0.0066,-0.0064,-0.0061,0,0,-0.0058,-0.0057,0,0,0,0,0,0,0,0,-0.0179,-0.0178,-0.0164,-0.0163,-0.0161,-0.0139,-0.0132,-0.0117,-0.0124,-0.0138,-0.0123,-0.0123,-0.0088,-0.0084,-0.0081,-0.0058,-0.0055,-0.0058,-0.0057,-0.0056,-0.0055,0,0,0,0,0,0,0,-0.018,-0.0179,-0.0167,-0.0164,-0.0162,-0.0148,-0.0146,-0.0129,-0.0116,-0.0137,-0.0135,-0.0131,-0.0087,-0.0083,-0.0079,-0.0055,-0.0058,-0.0056,-0.0055,-0.0054,-0.0037,-0.0038,0,0,0,0,0,0,-0.0185,-0.018,-0.0168,-0.0166,-0.0168,-0.0148,-0.0146,-0.0147,-0.0117,-0.0112,-0.0131,-0.013,-0.0086,-0.0082,-0.0077,-0.0078,-0.0056,-0.0054,-0.0053,-0.0036,-0.0037,-0.0038,0,0,0,0,0,0,-0.0185,-0.0184,-0.0169,-0.0171,-0.0168,-0.0149,-0.015,-0.0146,-0.0143,-0.0112,-0.0107,-0.0132,-0.0086,-0.008,-0.007,-0.0075,-0.0053,-0.0052,-0.0036,-0.0037,-0.0038,-0.0076,0,0,0,0,0,0,-0.0186,-0.0185,-0.0191,-0.0172,-0.0168,-0.0168,-0.015,-0.0146,-0.0141,-0.0139,-0.0111,-0.0105,-0.0085,-0.0073,-0.0068,-0.0072,-0.005,-0.0035,-0.0036,-0.0037,-0.0074,-0.0078,-0.0081,0,0,0,0,0,-0.0187,-0.0199,-0.0191,-0.019,-0.0176,-0.0169,-0.0166,-0.0151,-0.0142,-0.0146,-0.0128,-0.0106,-0.0078,-0.0072,-0.0066,-0.007,-0.0034,-0.0036,-0.0037,-0.0072,-0.0077,-0.0081,0,0,0,0,0,0,-0.021,-0.0198,-0.0188,-0.0197,-0.0185,-0.0165,-0.0168,-0.0155,-0.0145,-0.0144,-0.0113,-0.0107,-0.0105,-0.0084,-0.0079,-0.007,-0.0053,-0.0053,-0.0081,-0.0086,-0.009,-0.0077,-0.0049,0,0,0,0,0,-0.0218,-0.0225,-0.0206,-0.0213,-0.0209,-0.0189,-0.0185,-0.0174,-0.016,-0.0155,-0.0135,-0.0117,-0.0107,-0.0093,-0.0084,-0.0073,-0.0039,-0.0073,-0.0077,-0.0081,-0.0067,-0.0024,-0.0022,-0.0043,-0.0043,-0.0043,0,0,-0.0228,-0.0223,-0.0226,-0.0219,-0.0209,-0.021,-0.0187,-0.0185,-0.0183,-0.0151,-0.0147,-0.0135,-0.0111,-0.0106,-0.0102,-0.0086,-0.0061,-0.0083,-0.0086,-0.007,-0.0025,-0.0023,-0.002,-0.0044,-0.0044,-0.0043,0,0,-0.0253,-0.0248,-0.0261,-0.0255,-0.0244,-0.0231,-0.0232,-0.0215,-0.0205,-0.02,-0.018,-0.0164,-0.015,-0.0126,-0.0114,-0.0131,-0.0091,-0.0138,-0.0134,-0.0093,-0.009,-0.0087,-0.0054,-0.0048,-0.0129,-0.0129,-0.0129,0,-0.0266,-0.0277,-0.0263,-0.0273,-0.0269,-0.0242,-0.0251,-0.0239,-0.022,-0.0208,-0.0206,-0.0174,-0.0155,-0.0132,-0.014,-0.0137,-0.0112,-0.0118,-0.0096,-0.0093,-0.0089,-0.0055,-0.0048,-0.0131,-0.0131,-0.0131,-0.0131,0,-0.0297,-0.0305,-0.0313,-0.0313,-0.031,-0.0313,-0.0292,-0.0285,-0.027,-0.0249,-0.0231,-0.0204,-0.0177,-0.0176,-0.0161,-0.0131,-0.0122,-0.0114,-0.0081,-0.0089,-0.0054,-0.0045,-0.0134,-0.0133,-0.0133,-0.0132,0,0,-0.0323,-0.0333,-0.0335,-0.034,-0.033,-0.0329,-0.0325,-0.0306,-0.0294,-0.0273,-0.0252,-0.0229,-0.0203,-0.0187,-0.0165,-0.0123,-0.0083,-0.0108,-0.0105,-0.0069,0.0004,-0.0009,-0.0001,-0.0073,-0.0071,-0.007,0.0013,0,-0.0348,-0.0377,-0.0371,-0.0388,-0.0396,-0.0372,-0.0368,-0.0347,-0.0321,-0.0296,-0.025,-0.0231,-0.0211,-0.02,-0.0155,-0.0105,-0.0061,-0.0106,0.0002,0.0005,0.0,0.0009,-0.0065,0.002,0.0022,0.0023,0.0024,0,-0.0375,-0.039,-0.0418,-0.0419,-0.042,-0.0427,-0.0407,-0.0399,-0.0352,-0.0331,-0.0289,-0.0255,-0.0196,-0.0182,-0.0075,-0.0108,-0.0052,-0.0007,-0.0003,0.0011,0.0009,0.0033,0.004,0.0039,0.0038,0.0037,0.0036,0,-0.0396,-0.0417,-0.0441,-0.0443,-0.0445,-0.045,-0.0446,-0.0413,-0.0401,-0.035,-0.0332,-0.0259,-0.0226,-0.0141,-0.0052,-0.0061,0.0068,0.0066,0.0112,0.0111,0.0116,0.0112,0.0152,0.0152,0.0152,0.0152,0.0151,0,-0.0417,-0.0435,-0.0457,-0.047,-0.0493,-0.0481,-0.0488,-0.0468,-0.0436,-0.0418,-0.0353,-0.032,-0.0213,-0.0131,-0.0048,0.0058,0.0074,0.0123,0.0138,0.0094,0.0087,0.0121,0.0116,0.0155,0.0154,0.0153,0.0153,0,-0.0433,-0.0448,-0.0478,-0.0497,-0.0507,-0.0523,-0.0529,-0.0525,-0.0491,-0.0465,-0.0451,-0.036,-0.0253,-0.0141,-0.0001,0.0055,0.0161,0.0196,0.014,0.0149,0.0177,0.0169,0.0257,0.0257,0.0258,0.0258,0.0258,0,-0.0441,-0.0462,-0.0506,-0.0531,-0.0545,-0.0568,-0.0581,-0.056,-0.0549,-0.0487,-0.0471,-0.037,-0.0299,-0.0103,0.0005,0.0168,0.0186,0.0235,0.0211,0.0185,0.019,0.0182,0.0174,0.0259,0.0259,0.0259,0.0259,0,-0.0455,-0.0478,-0.0504,-0.0561,-0.0592,-0.0615,-0.0628,-0.0625,-0.0588,-0.056,-0.0471,-0.0367,-0.0247,-0.0104,0.0022,0.0136,0.02,0.0239,0.0239,0.0217,0.0188,0.0191,0.0183,0.026,0.026,0.026,0.026,0,-0.0464,-0.049,-0.0534,-0.0578,-0.0622,-0.0646,-0.0651,-0.0626,-0.0607,-0.0532,-0.0506,-0.0367,-0.0287,-0.012,-0.0003,0.0106,0.0129,0.0154,0.0159,0.0159,0.0099,0.0046,0.0098,0,0,0,0,0,-0.0467,-0.0499,-0.0546,-0.0593,-0.0638,-0.066,-0.0672,-0.0665,-0.0633,-0.0573,-0.0534,-0.0415,-0.0233,-0.015,-0.0041,-0.0012,0.0134,0.0117,0.0161,0.0266,0.0265,0.021,0,0,0,0,0,0,-0.0471,-0.0518,-0.0543,-0.0594,-0.0628,-0.0667,-0.0677,-0.0658,-0.0612,-0.0567,-0.0464,-0.0401,-0.022,-0.0292,-0.0041,-0.0009,0.0031,0.0207,0.0209,0.0267,0.0266,0.0265,0.0207,0,0,0,0,0]}]]